www.pogodaiklimat.ru

Погода и климат >> Архив погоды >> Россия >> Новгородская область >> Крестцы


ПОГОДА в Крестцах

  • Прогноз погоды в Крестцах
  • Монитор погоды в Крестцах
  • Климат города

АРХИВ ПОГОДЫ в Крестцах

Время (UTC), дата Ветер
(напр.,м/с)
 
Видим.   Явления Облачность Т
(С)
Тd
(С)
f
(%)
Тe
(С)
Тes
(С)
Комфортность P
(гПа)
Po
(гПа)
Тmin
(С)
Tmax
(С)
R
(мм)
R24
(мм)
S
(см)
15 10.07 С 1 н/о н/о +16.6 +15.2 91 +17 +17 1018.8 1011.3
18 10.07 СЗ 1 20 км в посл. час ливневой дождь 10/10 600 м
[Cb calv]
+16.1 +15.1 94 +17 +17 1019.2 1011.6 +18.8 0.8
21 10.07 СЗ 1 н/о н/о +15.2 +14.3 94 +16 +16 1019.7 1012.1
00 11.07 СЗ 1 н/о н/о +14.8 +14.0 95 +15 +15 1019.5 1011.9
03 11.07 СЗ 1 н/о н/о +14.9 +14.2 96 +15 +15 1019.3 1011.7 +14.7 0.5
06 11.07 СЗ 1 20 км 10/10 360 м
[St]
+16.9 +14.9 88 +18 +18 1019.8 1012.2 +14.7
09 11.07 З 1 н/о н/о +21.7 +15.9 70 +25 +25 комфорт 1018.9 1011.5
12 11.07 Ю 1 н/о н/о +21.6 +17.8 79 +26 +26 душно 1018.0 1010.6
15 11.07 СЗ 1 н/о н/о +20.3 +18.4 89 +25 +25 комфорт 1017.7 1010.3 8
18 11.07 СВ 1 20 км 9/8 900 м
[Cb calv Ac und]
+19.5 +18.3 93 +23 +23 комфорт 1018.1 1010.6 +24.4 9
21 11.07 штиль 0 н/о н/о +17.4 +16.7 96 +17 +17 1017.9 1010.4
00 12.07 штиль 0 н/о н/о +16.3 +15.8 97 +16 +16 1017.7 1010.2
03 12.07 штиль 0 н/о н/о +16.6 +16.1 97 +16 +16 1017.9 1010.4 +15.6
06 12.07 ЮВ 1 20 км 8/0
[Ac und]
+21.3 +17.8 80 +25 +29 комфорт 1017.7 1010.3 +15.6
09 12.07 З 2 н/о н/о +25.1 +15.5 55 +28 +28 жарко 1017.1 1009.7
12 12.07 В 1 н/о н/о +24.3 +16.2 61 +28 +28 душно 1016.4 1009.1
15 12.07 СЗ 2 н/о н/о +24.3 +16.7 63 +28 +28 душно 1015.5 1008.2
18 12.07 штиль 0 20 км 9/4 1000 м
[Cb calv Ac cuf Ci fib]
+22.0 +15.6 67 +26 +26 душно 1015.4 1008.0 +26.9
21 12.07 штиль 0 н/о н/о +17.9 +16.5 92 +18 +18 1015.4 1007.9
00 13.07 штиль 0 н/о н/о +14.0 +13.4 96 +14 +14 1015.2 1007.6
03 13.07 штиль 0 н/о н/о +15.6 +14.3 92 +15 +15 1014.7 1007.2 +13.1
06 13.07 ЮВ 1 20 км 3/0
[Ac cast]
+24.0 +15.1 57 +27 +34 жарко 1014.2 1006.9 +13.1
09 13.07 В 2 н/о н/о +25.2 +13.6 49 +27 +27 жарко 1013.8 1006.5
12 13.07 В 2 н/о н/о +26.1 +13.9 47 +28 +28 жарко 1012.4 1005.2
15 13.07 ЮВ 2 н/о н/о +25.0 +14.3 51 +27 +27 жарко 1011.7 1004.4
18 13.07 В 1 20 км 4/0
[Ac trans]
+21.7 +15.1 66 +25 +25 комфорт 1011.9 1004.5 +27.4
21 13.07 штиль 0 н/о н/о +16.2 +15.1 93 +16 +16 1011.9 1004.4
00 14.07 штиль 0 н/о н/о +15.5 +14.8 96 +15 +15 1011.6 1004.1
03 14.07 штиль 0 н/о н/о +15.6 +15.0 96 +15 +15 1011.4 1003.9 +13.8
06 14.07 С 1 20 км 3/0
[Ci sp]
+22.1 +16.6 71 +26 +34 душно 1010.8 1003.5 +13.8
09 14.07 СВ 4 н/о н/о +24.0 +14.3 55 +27 +27 жарко 1010.5 1003.2
12 14.07 В 2 н/о н/о +25.8 +15.5 53 +29 +29 душно 1008.9 1001.6
15 14.07 СВ 2 н/о н/о +20.9 +18.5 86 +26 +26 душно 1008.9 1001.6 0.8
18 14.07 СВ 2 20 км 8/4 600 м
[Cb calv Ac trans Ci fib]
+20.7 +17.6 82 +25 +25 комфорт 1009.0 1001.7 +26.5 0.9
21 14.07 С 1 н/о н/о +16.9 +16.2 96 +18 +18 1009.6 1002.1
00 15.07 СЗ 1 н/о н/о +14.9 +14.3 96 +15 +15 1009.9 1002.4
03 15.07 штиль 0 н/о н/о +16.1 +15.7 97 +16 +16 1010.2 1002.7 +13.6
06 15.07 СВ 2 20 км 3/0
[Ci sp]
+23.1 +18.1 73 +29 +36 очень
душно
1010.6 1003.3 +13.6
09 15.07 СВ 3 н/о н/о +26.0 +17.8 61 +30 +30 душно 1010.8 1003.5
12 15.07 СВ 1 н/о н/о +22.7 +18.1 75 +28 +28 душно 1010.8 1003.5
15 15.07 С 1 н/о н/о +25.4 +17.6 62 +30 +30 душно 1010.9 1003.7
18 15.07 штиль 0 20 км 8/0
[Ci sp]
+22.0 +19.1 84 +27 +27 душно 1011.4 1004.1 +26.8
21 15.07 штиль 0 н/о н/о +17.9 +17.2 96 +18 +18 1012.1 1004.7
00 16.07 штиль 0 н/о н/о +15.5 +14.9 96 +15 +15 1012.8 1005.3
03 16.07 штиль 0 н/о н/о +17.0 +16.4 96 +17 +17 1013.2 1005.8 +14.3
06 16.07 СВ 2 20 км 4/0
[Ci fib]
+24.9 +17.2 62 +29 +35 душно 1013.4 1006.1 +14.3
09 16.07 В 4 н/о н/о +27.5 +14.1 44 +30 +30 жарко 1012.8 1005.6
12 16.07 В 3 н/о н/о +29.7 +13.5 37 +31 +31 жарко 1012.2 1005.0
15 16.07 СВ 3 н/о н/о +29.2 +12.9 37 +31 +31 жарко 1011.3 1004.1
18 16.07 СВ 1 20 км 8/0
[Ci sp]
+24.7 +15.5 57 +28 +28 душно 1012.2 1004.9 +29.9
21 16.07 СВ 1 н/о н/о +17.8 +15.6 87 +19 +19 1013.1 1005.6
00 17.07 СВ 1 н/о н/о +15.9 +14.5 91 +17 +17 1013.3 1005.8
03 17.07 СВ 1 н/о н/о +18.9 +14.5 76 +21 +21 комфорт 1013.4 1005.9 +15.7
06 17.07 СВ 3 20 км ясно +25.4 +15.7 55 +29 +35 душно 1013.2 1005.9 +15.7
09 17.07 СВ 5
{11}
н/о н/о +27.8 +12.1 38 +29 +29 жарко 1012.6 1005.3
12 17.07 СВ 4
{13}
н/о н/о +28.8 +11.0 33 +29 +29 жарко 1011.9 1004.7

 

Местоположение метеостанции Крестцы (Новгородская область, Россия): широта 58.27 долгота 32.52 высота над уровнем моря 63 м.

В архиве по умолчанию представлена погода в Крестцах за последнюю неделю. Архивные данные за месяц целиком и за предыдущие месяцы, начиная с января 2011 года, Вы можете получить, выбрав интересующий диапазон дат из раскрывающегося списка и нажав кнопку "Ввод!".


*Определитесь, кто Вы:
робот инопланетянин человек

Внимание! Время в таблицах - всемирное. Для получения местного времени необходимо прибавить поправку, которая в Крестцах равна 3 ч.

Смотрите также архив погоды в соседних городах и на ближайших метеорологических станциях:

Погода в Валдае (Новгородская область, Россия) (53 км)
Погода в Демянске (Новгородская область, Россия) (69 км)
Погода в Старой Руссе (Новгородская область, Россия) (76 км)
Погода в Великом Новгороде (Новгородская область, Россия) (79 км)
Погода в Боровичах (Новгородская область, Россия) (82 км)
Погода в Бологом (Тверская область, Россия) (99 км)
Погода в Осташкове (Тверская область, Россия) (134 км)
Погода в Киришах (Ленинградская область, Россия) (134 км)
Погода в Любани (Ленинградская область, Россия) (141 км)
Погода в Вышнем Волочке (Тверская область, Россия) (145 км)

Пояснения к столбцам:

Ветер - указаны скорость ветра в м/с - средняя за 10 мин, порывы в срок и между сроками (в фигурных скобках) и направление, откуда дует ветер: С - северный, СВ - северо-восточный, В - восточный, ЮВ - юго-восточный, Ю - южный, ЮЗ - юго-западный, З - западный, СЗ - северо-западный.
Видимость - горизонтальная дальность видимости в метрах или километрах. При видимости от 1 до 10 км при отсутствии осадков обычно наблюдается дымка, при ухудшении видимости до 1 км и менее - туман. В сухую погоду видимость может ухудшаться дымом, пылью или мглою.
Явления - указаны атмосферные явления, наблюдавшиеся в срок или в последний час перед сроком; фигурными скобками обозначены явления, наблюдавшиеся между сроками (за 1-3 часа до срока); квадратными скобками обозначены град или гололедные отложения с указанием их диаметра в мм.
Облачность - указаны через наклонную черту общая и нижняя облачность в баллах и высота нижней границы облаков в метрах; квадратными скобками обозначены формы облаков: Ci - перистые, Cs - перисто-слоистые, Cc - перисто-кучевые, Ac - высококучевые, As - высокослоистые, Sc - слоисто-кучевые, Ns - слоисто-дождевые, Cu - кучевые, Cb - кучево-дождевые. Подробнее классификацию облаков см. в Атласе облаков (PDF).
T - Температура воздуха - температура, измеренная на высоте 2 м над землей.
Td - Температура точки росы - температура, при понижении до которой содержащийся в воздухе водяной пар достигнет насыщения.
f - Относительная влажность воздуха - влажноcть воздуха, измеренная на высоте 2 м над землей.
Te - Эффективная температура - температура, которую ощущает одетый по сезону человек в тени. Характеристика душности погоды. При расчете учитывается влияние влажности воздуха и скорости ветра на теплоощущения человека.
Tes - Эффективная температура на солнце - температура, которую ощущает человек, с поправкой на солнечный нагрев. Характеристика знойности погоды. Зависит от высоты солнца над горизонтом, облачности и скорости ветра. Ночью, в пасмурную погоду, а также при ветре 12 м/с и более поправка равна нулю.
P - Атмосферное давление - приведенное к уровню моря атмосферное давление.
Po - Атмосферное давление - измеренное на уровне метеостанции атмосферное давление.
Tmin - Минимальная температура - минимум температуры воздуха на высоте 2 м над землей.
Tmax - Максимальная температура - максимум температуры воздуха на высоте 2 м над землей.
R - Количество осадков - Количество выпавших осадков за период времени, мм. При наведении курсора мыши на число - период времени, за который выпало указанное количество осадков.
R24 - Количество осадков - Количество выпавших осадков за 24 часа, мм.
S - Снежный покров - Высота снежного покрова, см. При наведении курсора мыши на число - состояние снежного покрова и степень покрытия местности в баллах.